Weather reports worldwide

Advertisment
Toledo, Spain (8272): temperature & dewpoint: 14.06.2019 06:00:00 - 20.06.2019 06:00:00 (CEST)Toledo, Spain (8272): wind speed: 14.06.2019 06:00:00 - 20.06.2019 06:00:00 (CEST)Toledo, Spain (8272): wind direction: 14.06.2019 06:00:00 - 20.06.2019 06:00:00 (CEST)Toledo, Spain (8272): reduced air pressure: 14.06.2019 06:00:00 - 20.06.2019 06:00:00 (CEST)Toledo, Spain (8272): visibility: 14.06.2019 06:00:00 - 20.06.2019 06:00:00 (CEST)Toledo, Spain (8272): precipitation: 14.06.2019 06:00:00 - 20.06.2019 06:00:00 (CEST)
Date & Time tt [°C] td [°C] ff [km/h] ff [kn] dd ppp [hPa] vv [km] rr [mm]
20.06.2019 06:00:00 - - - - - - - -
20.06.2019 05:00:00 17,5 9,6 5 3 WNW 1013,5 20 -
20.06.2019 04:00:00 18,0 9,6 5 3 WNW 1013,7 20 0,0
20.06.2019 03:00:00 18,6 9,6 4 2 W 1013,7 20 0,0
20.06.2019 02:00:00 19,2 9,7 5 3 WSW 1013,7 20 -
20.06.2019 01:00:00 20,1 9,3 8 4 WSW 1013,5 20 0,0
20.06.2019 00:00:00 21,6 8,8 11 6 WNW 1013,2 20 0,0
19.06.2019 23:00:00 22,5 8,9 15 8 WNW 1013,1 20 -
19.06.2019 22:00:00 23,5 9,1 18 10 WNW 1012,5 20 0,0
19.06.2019 21:00:00 24,8 9,1 24 13 WNW 1012,1 20 0,0
19.06.2019 20:00:00 26,5 9,4 21 11 WNW 1011,4 20 -
19.06.2019 19:00:00 27,2 10,0 26 14 W 1011,2 20 0,0
19.06.2019 18:00:00 28,1 10,8 21 11 W 1011,3 20 0,0
19.06.2019 17:00:00 27,7 10,8 22 12 W 1011,8 20 -
19.06.2019 16:00:00 27,3 10,9 26 14 W 1012,3 20 0,0
19.06.2019 15:00:00 26,8 10,5 18 10 W 1012,7 20 0,0
19.06.2019 14:00:00 26,0 10,2 16 9 WNW 1013,3 20 -
19.06.2019 13:00:00 24,9 10,4 18 10 WNW 1013,8 20 0,0
19.06.2019 12:00:00 23,5 10,5 15 8 WNW 1014,0 20 0,0
19.06.2019 11:00:00 22,3 10,8 16 9 WNW 1014,3 20 -
19.06.2019 10:00:00 20,7 11,1 18 10 WNW 1014,8 20 0,0
19.06.2019 09:00:00 19,0 10,5 18 10 W 1015,0 20 0,0
19.06.2019 08:00:00 17,7 10,1 15 8 W 1015,2 20 -
19.06.2019 07:00:00 17,1 9,8 5 3 W 1015,0 20 0,0
19.06.2019 06:00:00 18,0 9,9 9 5 W 1014,4 20 0,0
19.06.2019 05:00:00 19,0 10,5 13 7 WNW 1014,0 20 -
19.06.2019 04:00:00 19,8 12,3 15 8 W 1013,5 20 0,0
19.06.2019 03:00:00 20,5 11,9 13 7 WNW 1013,4 20 0,0
19.06.2019 02:00:00 21,1 11,1 11 6 WNW 1013,3 20 -
19.06.2019 01:00:00 21,9 9,8 9 5 WNW 1013,3 20 0,0
19.06.2019 00:00:00 23,2 9,2 11 6 WNW 1013,0 20 0,0
18.06.2019 23:00:00 23,7 9,3 9 5 NW 1012,5 20 -
18.06.2019 22:00:00 24,8 9,5 16 9 WNW 1011,5 20 0,0
18.06.2019 21:00:00 27,5 8,9 26 14 W 1010,7 20 0,0
18.06.2019 20:00:00 29,2 2,4 29 16 WNW 1009,8 20 -
18.06.2019 19:00:00 30,6 -5,9 29 16 WNW 1009,2 20 0,0
18.06.2019 18:00:00 31,5 -5,2 26 14 W 1009,0 20 0,0
18.06.2019 17:00:00 31,6 -1,3 26 14 W 1009,2 20 -
18.06.2019 16:00:00 31,8 0,0 18 10 SW 1009,7 20 0,0
18.06.2019 15:00:00 31,4 0,7 18 10 WSW 1010,0 20 0,0
18.06.2019 14:00:00 30,2 2,4 18 10 SW 1010,8 20 -
18.06.2019 13:00:00 28,8 0,5 22 12 WSW 1011,5 20 0,0
18.06.2019 12:00:00 27,7 -3,2 21 11 WSW 1012,1 20 0,0
18.06.2019 11:00:00 26,5 -1,4 16 9 WSW 1012,3 20 -
18.06.2019 10:00:00 25,0 0,5 11 6 NW 1012,8 20 0,0
18.06.2019 09:00:00 23,5 -5,6 15 8 SW 1013,1 20 0,0
18.06.2019 08:00:00 21,6 0,7 13 7 W 1012,9 20 -
18.06.2019 07:00:00 20,8 0,6 5 3 W 1012,6 20 0,0
18.06.2019 06:00:00 22,0 0,5 15 8 WSW 1012,0 20 0,0
18.06.2019 05:00:00 23,2 0,3 9 5 WSW 1011,8 20 -
18.06.2019 04:00:00 24,1 -1,7 9 5 WNW 1011,5 20 0,0
18.06.2019 03:00:00 24,4 0,0 5 3 W 1011,6 20 0,0
18.06.2019 02:00:00 24,8 1,6 2 1 WSW 1012,0 20 -
18.06.2019 01:00:00 25,4 1,5 4 2 W 1011,9 20 0,0
18.06.2019 00:00:00 26,6 1,8 8 4 WNW 1011,3 20 0,0
17.06.2019 23:00:00 27,7 0,4 8 4 W 1010,8 20 -
17.06.2019 22:00:00 29,0 1,5 5 3 W 1009,9 10 0,0
17.06.2019 21:00:00 30,6 1,0 16 9 W 1009,5 17 0,0
17.06.2019 20:00:00 32,5 1,5 13 7 SW 1009,0 20 -
17.06.2019 19:00:00 32,9 0,8 11 6 SW 1008,9 20 0,0
17.06.2019 18:00:00 33,5 1,3 18 10 WSW 1009,6 20 0,0
17.06.2019 17:00:00 33,7 -0,9 22 12 S 1009,9 20 -
17.06.2019 16:00:00 32,9 -0,3 11 6 WSW 1010,6 20 0,0
17.06.2019 15:00:00 32,3 0,4 16 9 WSW 1011,5 20 0,0
17.06.2019 14:00:00 30,4 3,4 9 5 SW 1013,0 20 -
17.06.2019 13:00:00 29,0 3,8 13 7 WNW 1014,1 20 0,0
17.06.2019 12:00:00 27,3 4,3 9 5 NW 1014,8 19 0,0
17.06.2019 11:00:00 25,1 4,2 9 5 W 1015,5 15 -
17.06.2019 10:00:00 22,6 3,7 4 2 S 1016,2 20 0,0
17.06.2019 09:00:00 19,4 3,1 4 2 SE 1016,8 20 0,0
17.06.2019 08:00:00 16,2 1,9 0 0 N 1017,2 20 -
17.06.2019 07:00:00 15,6 1,3 4 2 SSE 1016,8 20 0,0
17.06.2019 06:00:00 17,3 0,9 2 1 SW 1016,3 20 0,0
17.06.2019 05:00:00 18,1 1,6 4 2 WNW 1016,0 19 -
17.06.2019 04:00:00 19,4 1,4 4 2 W 1015,7 20 0,0
17.06.2019 03:00:00 19,3 1,7 2 1 S 1015,7 20 0,0
17.06.2019 02:00:00 20,8 2,1 2 1 NE 1015,5 20 -
17.06.2019 01:00:00 21,6 1,3 2 1 W 1015,6 20 0,0
17.06.2019 00:00:00 22,8 1,2 4 2 NW 1015,2 20 0,0
16.06.2019 23:00:00 24,3 1,2 8 4 WNW 1014,7 20 -
16.06.2019 22:00:00 26,1 0,7 9 5 NNW 1013,6 20 0,0
16.06.2019 21:00:00 28,4 1,0 15 8 WNW 1012,6 20 0,0
16.06.2019 20:00:00 30,7 0,1 5 3 WSW 1012,0 20 -
16.06.2019 19:00:00 31,5 0,8 13 7 NW 1011,6 20 0,0
16.06.2019 18:00:00 31,7 -0,1 8 4 NW 1011,8 20 0,0
16.06.2019 17:00:00 31,0 1,3 9 5 WNW 1012,4 20 -
16.06.2019 16:00:00 29,9 2,2 9 5 E 1013,2 20 0,0
16.06.2019 15:00:00 30,8 2,9 8 4 E 1013,8 20 0,0
16.06.2019 14:00:00 28,5 2,6 8 4 W 1015,0 20 -
16.06.2019 13:00:00 27,4 5,0 11 6 E 1015,7 20 0,0
16.06.2019 12:00:00 24,7 4,4 15 8 E 1016,5 20 0,0
16.06.2019 11:00:00 23,4 4,3 15 8 ESE 1016,9 20 -
16.06.2019 10:00:00 19,5 1,0 15 8 ESE 1018,0 20 0,0
16.06.2019 09:00:00 17,0 -0,3 11 6 E 1018,5 20 0,0
16.06.2019 08:00:00 12,9 -0,4 13 7 ESE 1019,1 20 -
16.06.2019 07:00:00 11,9 -0,6 5 3 E 1018,7 20 0,0
16.06.2019 06:00:00 13,3 0,0 4 2 SE 1018,2 20 0,0
16.06.2019 05:00:00 14,5 0,3 5 3 E 1017,8 20 -
16.06.2019 04:00:00 16,2 0,3 2 1 NW 1017,7 20 0,0
16.06.2019 03:00:00 16,7 -0,1 4 2 ESE 1017,9 20 0,0
16.06.2019 02:00:00 18,1 0,2 5 3 WSW 1017,8 20 -
16.06.2019 01:00:00 18,7 -0,2 4 2 SW 1018,2 20 0,0
16.06.2019 00:00:00 20,2 -1,0 2 1 ESE 1017,6 20 0,0
15.06.2019 23:00:00 21,4 -1,2 2 1 N 1017,0 20 -
15.06.2019 22:00:00 23,1 -1,1 8 4 NW 1015,9 20 0,0
15.06.2019 21:00:00 26,1 0,7 9 5 NW 1015,0 20 0,0
15.06.2019 20:00:00 26,7 0,4 15 8 NW 1014,8 20 -
15.06.2019 19:00:00 26,9 0,6 13 7 WNW 1014,7 20 0,0
15.06.2019 18:00:00 26,8 0,5 15 8 WNW 1015,1 20 0,0
15.06.2019 17:00:00 26,5 -0,6 11 6 WSW 1015,6 20 -
15.06.2019 16:00:00 25,3 0,0 13 7 W 1016,2 20 0,0
15.06.2019 15:00:00 24,5 0,7 8 4 NW 1016,8 20 0,0
15.06.2019 14:00:00 23,2 2,6 16 9 WNW 1017,5 20 -
15.06.2019 13:00:00 21,7 3,4 8 4 N 1018,4 20 0,0
15.06.2019 12:00:00 20,0 4,5 9 5 W 1019,0 20 0,0
15.06.2019 11:00:00 18,9 5,3 9 5 SW 1019,2 20 -
15.06.2019 10:00:00 16,7 5,6 8 4 WNW 1019,6 20 0,0
15.06.2019 09:00:00 14,8 6,1 13 7 W 1019,6 20 0,0
15.06.2019 08:00:00 12,6 5,5 4 2 NW 1019,8 20 -
15.06.2019 07:00:00 11,0 5,1 4 2 W 1019,8 20 0,0
15.06.2019 06:00:00 11,7 5,3 5 3 SSW 1019,1 20 0,0
15.06.2019 05:00:00 12,6 5,0 9 5 WNW 1018,7 20 -
15.06.2019 04:00:00 13,3 4,7 5 3 WNW 1018,3 20 0,0
15.06.2019 03:00:00 14,5 4,5 11 6 WNW 1018,1 20 0,0
15.06.2019 02:00:00 15,3 3,7 18 10 W 1017,7 20 -
15.06.2019 01:00:00 16,2 2,9 16 9 W 1017,4 20 0,0
15.06.2019 00:00:00 17,2 2,4 18 10 W 1016,6 20 0,0
14.06.2019 23:00:00 18,6 2,8 22 12 W 1015,7 20 -
14.06.2019 22:00:00 19,9 3,6 22 12 WSW 1014,2 20 0,0
14.06.2019 21:00:00 21,2 2,4 18 10 WSW 1013,0 20 0,0
14.06.2019 20:00:00 23,4 -0,9 18 10 SW 1012,1 20 -
14.06.2019 19:00:00 24,4 0,6 22 12 W 1011,2 20 0,0
14.06.2019 18:00:00 24,7 -0,5 28 15 W 1011,1 20 0,0
14.06.2019 17:00:00 25,1 0,5 26 14 W 1010,8 20 -
14.06.2019 16:00:00 25,3 0,7 22 12 WNW 1010,9 20 0,0
14.06.2019 15:00:00 24,9 1,1 26 14 W 1010,8 20 0,0
14.06.2019 14:00:00 24,6 1,5 26 14 WSW 1011,0 20 -
14.06.2019 13:00:00 23,6 2,4 22 12 WNW 1010,7 20 0,0
14.06.2019 12:00:00 23,0 4,0 18 10 W 1010,6 20 0,0
14.06.2019 11:00:00 21,1 3,3 15 8 WNW 1011,2 20 -
14.06.2019 10:00:00 19,0 4,0 11 6 W 1011,8 20 0,0
14.06.2019 09:00:00 16,9 4,2 13 7 W 1012,1 20 0,0
14.06.2019 08:00:00 14,9 4,3 11 6 WNW 1011,7 20 -
14.06.2019 07:00:00 14,5 2,7 13 7 W 1011,4 20 0,0
14.06.2019 06:00:00 15,8 0,7 13 7 W 1010,6 20 0,0

tt = temperature
td = dewpoint
ff = wind speed
dd = wind direction
ppp = reduced air pressure
vv = visibility
rr = precipitation

Next stations